Date,TemperatureHighF,TemperatureAvgF,TemperatureLowF,DewpointHighF,DewpointAvgF,DewpointLowF,HumidityHigh,HumidityAvg,HumidityLow,PressureMaxIn,PressureMinIn,WindSpeedMaxMPH,WindSpeedAvgMPH,GustSpeedMaxMPH,PrecipitationSumIn
2013-1-23,11.0,9.1,7.0,-99.9,-99.9,-99.9,0,0,100,29.97,29.91,25,22,35,0.00
2013-1-24,18.0,11.3,0.0,-99.9,-99.9,-99.9,0,0,100,29.96,29.80,34,26,46,0.00
2013-1-25,24.0,16.5,0.0,-99.9,-99.9,-99.9,0,0,100,29.98,29.96,31,22,47,0.00
2013-1-26,21.0,17.4,14.0,-99.9,-99.9,-99.9,0,0,100,0.00,40.00,27,20,37,0.00
2013-1-27,25.0,19.6,15.0,-99.9,-99.9,-99.9,0,0,100,0.00,40.00,28,24,35,0.00
2013-1-28,28.0,22.0,18.0,-99.9,-99.9,-99.9,0,0,100,30.34,30.05,22,12,28,0.00
2013-1-29,37.0,32.2,28.0,-99.9,-99.9,-99.9,0,0,100,30.18,30.01,12,6,14,0.00
2013-1-30,50.0,47.1,42.0,-99.9,-99.9,-99.9,0,0,100,29.96,29.44,33,27,43,0.00
2013-1-31,52.0,44.7,36.0,-99.9,-99.9,-99.9,0,0,100,29.44,28.83,41,36,54,0.00
2013-2-1,36.0,29.5,19.0,-99.9,-99.9,-99.9,0,0,100,29.92,29.32,37,26,46,0.00
2013-2-2,29.0,20.9,16.0,-99.9,-99.9,-99.9,0,0,100,30.16,29.92,25,15,32,0.00
2013-2-3,29.0,26.9,25.0,-99.9,-99.9,-99.9,0,0,100,30.01,29.59,26,20,30,0.00
2013-2-4,29.0,25.7,22.0,-99.9,-99.9,-99.9,0,0,100,29.76,29.49,35,27,43,0.00
2013-2-5,24.0,20.5,18.0,-99.9,-99.9,-99.9,0,0,100,29.99,29.76,35,20,43,0.00
2013-2-6,35.0,30.2,25.0,-99.9,-99.9,-99.9,0,0,100,30.15,29.88,29,18,34,0.00
2013-2-7,25.0,15.3,11.0,-99.9,-99.9,-99.9,0,0,100,30.56,30.15,26,19,32,0.00
2013-2-8,28.0,23.1,15.0,-99.9,-99.9,-99.9,0,0,100,30.56,29.89,43,25,53,0.00
2013-2-9,29.0,24.4,21.0,-99.9,-99.9,-99.9,0,0,100,0.00,40.00,50,31,76,0.00
2013-2-10,29.0,24.3,20.0,-99.9,-99.9,-99.9,0,0,100,30.29,30.08,34,23,44,0.00
2013-2-11,44.0,36.2,27.0,-99.9,-99.9,-99.9,0,0,100,30.32,29.52,29,16,34,0.00
2013-2-12,42.0,38.8,36.0,-99.9,-99.9,-99.9,0,0,100,29.67,29.44,21,17,25,0.00
2013-2-13,39.0,38.0,37.0,-99.9,-99.9,-99.9,0,0,100,29.75,29.66,19,13,23,0.00
2013-2-14,38.0,36.0,33.0,-99.9,-99.9,-99.9,0,0,100,29.95,29.64,19,13,23,0.00
2013-2-15,43.0,41.9,37.0,-99.9,-99.9,-99.9,0,0,100,29.97,29.89,25,19,30,0.00
2013-2-16,43.0,37.7,31.0,-99.9,-99.9,-99.9,0,0,100,29.90,29.66,29,17,35,0.00
2013-2-17,32.0,27.3,24.0,-99.9,-99.9,-99.9,0,0,100,29.66,28.84,49,36,65,0.00
2013-2-18,32.0,26.4,23.0,-99.9,-99.9,-99.9,0,0,100,28.94,28.90,42,36,52,0.00
2013-2-19,43.0,34.1,28.0,-99.9,-99.9,-99.9,0,0,100,30.03,29.69,35,22,42,0.00
2013-2-20,45.0,38.9,31.0,-99.9,-99.9,-99.9,0,0,100,29.69,29.34,33,23,40,0.00
2013-2-21,37.0,30.9,26.0,-99.9,-99.9,-99.9,0,0,100,29.97,29.52,32,23,44,0.00
2013-2-22,37.0,34.4,32.0,-99.9,-99.9,-99.9,0,0,100,30.32,29.97,30,20,43,0.00
2013-2-23,34.0,33.2,32.0,-99.9,-99.9,-99.9,0,0,100,30.31,30.03,16,12,19,0.00
2013-2-24,35.0,34.1,32.0,-99.9,-99.9,-99.9,0,0,100,30.02,29.72,30,23,35,0.00
2013-2-25,36.0,30.4,26.0,-99.9,-99.9,-99.9,0,0,100,30.17,29.79,24,15,28,0.00
2013-2-26,40.0,37.3,35.0,-99.9,-99.9,-99.9,0,0,100,30.31,30.18,8,6,10,0.00
2013-2-27,39.0,37.5,34.0,-99.9,-99.9,-99.9,0,0,100,30.24,29.70,37,23,47,0.00
2013-2-28,41.0,40.0,37.0,-99.9,-99.9,-99.9,0,0,100,29.70,29.43,35,25,47,0.00
2013-3-1,38.0,34.7,33.0,-99.9,-99.9,-99.9,0,0,100,29.56,29.41,28,22,34,0.00
2013-3-2,38.0,35.5,34.0,-99.9,-99.9,-99.9,0,0,100,29.54,29.49,24,19,28,0.00
2013-3-3,40.0,38.2,37.0,-99.9,-99.9,-99.9,0,0,100,29.52,29.41,17,12,20,0.00
2013-3-4,37.0,35.0,33.0,-99.9,-99.9,-99.9,0,0,100,29.54,29.36,25,19,28,0.00
2013-3-5,41.0,37.8,36.0,-99.9,-99.9,-99.9,0,0,100,30.06,29.54,26,22,33,0.00
2013-3-6,39.0,37.1,35.0,-99.9,-99.9,-99.9,0,0,100,30.21,30.06,30,27,39,0.00
2013-3-7,38.0,36.4,35.0,-99.9,-99.9,-99.9,0,0,100,30.18,30.00,39,34,48,0.00
2013-3-8,43.0,37.3,34.0,-99.9,-99.9,-99.9,0,0,100,30.12,29.96,36,32,44,0.00
2013-3-9,39.0,34.3,31.0,-99.9,-99.9,-99.9,0,0,100,30.31,30.12,31,23,37,0.00
2013-3-10,35.0,33.1,31.0,-99.9,-99.9,-99.9,0,0,100,30.37,30.29,17,10,23,0.00
2013-3-11,41.0,39.1,36.0,-99.9,-99.9,-99.9,0,0,100,30.28,30.16,21,17,24,0.00
2013-3-12,45.0,42.9,41.0,-99.9,-99.9,-99.9,0,0,100,30.17,29.83,24,19,29,0.00
2013-3-13,46.0,43.7,40.0,-99.9,-99.9,-99.9,0,0,100,29.83,29.56,28,18,35,0.00
2013-3-14,40.0,37.2,30.0,-99.9,-99.9,-99.9,0,0,100,29.65,29.57,26,14,30,0.00
2013-3-15,34.0,27.2,23.0,-99.9,-99.9,-99.9,0,0,100,29.67,29.56,29,21,34,0.00
2013-3-16,34.0,30.8,27.0,-99.9,-99.9,-99.9,0,0,100,29.81,29.56,24,14,28,0.00
2013-3-17,31.0,27.2,23.0,-99.9,-99.9,-99.9,0,0,100,30.22,29.83,32,22,47,0.00
2013-3-18,33.0,24.0,20.0,-99.9,-99.9,-99.9,0,0,100,30.38,30.22,30,19,42,0.00
2013-3-19,34.0,29.9,28.0,-99.9,-99.9,-99.9,0,0,100,30.28,29.54,35,25,44,0.00
2013-3-20,37.0,29.4,23.0,-99.9,-99.9,-99.9,0,0,100,29.65,29.41,34,26,44,0.00
2013-3-21,37.0,35.3,34.0,-99.9,-99.9,-99.9,0,0,100,29.72,29.55,27,16,32,0.00
2013-3-22,38.0,34.7,31.0,-99.9,-99.9,-99.9,0,0,100,29.54,29.49,24,18,28,0.00
2013-3-23,39.0,35.2,31.0,-99.9,-99.9,-99.9,0,0,100,29.54,29.37,30,25,36,0.00
2013-3-24,42.0,38.2,36.0,-99.9,-99.9,-99.9,0,0,100,29.70,29.48,26,17,31,0.00
2013-3-25,39.0,37.0,35.0,-99.9,-99.9,-99.9,0,0,100,29.70,29.52,26,14,30,0.00
2013-3-26,43.0,36.9,32.0,-99.9,-99.9,-99.9,0,0,100,29.61,29.44,27,20,31,0.00
2013-3-27,39.0,37.8,36.0,-99.9,-99.9,-99.9,0,0,100,29.75,29.61,24,17,29,0.00
2013-3-28,42.0,39.9,38.0,-99.9,-99.9,-99.9,0,0,100,29.88,29.73,22,14,28,0.00
2013-3-29,44.0,41.5,40.0,-99.9,-99.9,-99.9,0,0,100,29.92,29.85,14,9,16,0.00
2013-3-30,42.0,40.8,39.0,-99.9,-99.9,-99.9,0,0,100,30.00,29.91,14,9,17,0.00
2013-3-31,42.0,40.6,39.0,-99.9,-99.9,-99.9,0,0,100,30.08,29.91,17,9,20,0.00
2013-4-1,43.0,41.0,39.0,-99.9,-99.9,-99.9,0,0,100,29.87,29.43,34,20,41,0.00
2013-4-2,39.0,34.0,31.0,-99.9,-99.9,-99.9,0,0,100,29.74,29.54,28,22,33,0.00
2013-4-3,39.0,34.7,30.0,-99.9,-99.9,-99.9,0,0,100,29.91,29.71,31,27,46,0.00
2013-4-4,41.0,36.9,34.0,-99.9,-99.9,-99.9,0,0,100,30.12,29.91,30,24,37,0.00
2013-4-5,43.0,40.8,40.0,-99.9,-99.9,-99.9,0,0,100,29.95,29.61,27,19,33,0.00
2013-4-6,40.0,34.6,30.0,-99.9,-99.9,-99.9,0,0,100,30.28,29.66,34,24,46,0.00
2013-4-7,42.0,38.1,33.0,-99.9,-99.9,-99.9,0,0,100,30.32,29.95,28,19,36,0.00
2013-4-8,48.0,42.8,41.0,-99.9,-99.9,-99.9,0,0,100,30.09,29.85,25,14,31,0.00
2013-4-9,42.0,40.5,39.0,-99.9,-99.9,-99.9,0,0,100,30.10,29.85,19,10,23,0.00
2013-4-10,42.0,40.7,39.0,-99.9,-99.9,-99.9,0,0,100,29.95,29.85,11,8,13,0.00
2013-4-11,44.0,40.9,38.0,-99.9,-99.9,-99.9,0,0,100,30.09,29.82,22,14,27,0.00
2013-4-12,39.0,36.3,35.0,-99.9,-99.9,-99.9,0,0,100,30.22,29.87,27,20,31,0.00
2013-4-13,40.0,37.5,35.0,-99.9,-99.9,-99.9,0,0,100,29.88,29.70,27,18,32,0.00
2013-4-14,43.0,40.6,40.0,-99.9,-99.9,-99.9,0,0,100,30.08,29.88,10,6,12,0.00
2013-4-15,41.0,39.6,38.0,-99.9,-99.9,-99.9,0,0,100,30.40,30.09,15,9,18,0.00
2013-4-16,44.0,41.8,39.0,-99.9,-99.9,-99.9,0,0,100,30.39,29.93,28,19,35,0.00
2013-4-17,49.0,45.2,43.0,-99.9,-99.9,-99.9,0,0,100,30.30,29.89,26,15,33,0.00
2013-4-18,44.0,41.4,40.0,-99.9,-99.9,-99.9,0,0,100,30.44,30.17,21,12,24,0.00
2013-4-19,48.0,45.2,43.0,-99.9,-99.9,-99.9,0,0,100,30.17,29.70,28,22,32,0.00
2013-4-20,49.0,45.4,42.0,-99.9,-99.9,-99.9,0,0,100,30.01,29.57,28,19,35,0.00
2013-4-21,46.0,42.0,39.0,-99.9,-99.9,-99.9,0,0,100,30.64,30.06,19,12,24,0.00
2013-4-22,42.0,40.4,39.0,-99.9,-99.9,-99.9,0,0,100,30.79,30.65,16,12,19,0.00
2013-4-23,42.0,40.0,38.0,-99.9,-99.9,-99.9,0,0,100,30.64,30.16,25,18,29,0.00
2013-4-24,45.0,42.4,41.0,-99.9,-99.9,-99.9,0,0,100,30.16,29.72,25,18,30,0.00
2013-4-25,46.0,44.6,43.0,-99.9,-99.9,-99.9,0,0,100,30.20,29.80,24,15,31,0.00
2013-4-26,45.0,42.6,41.0,-99.9,-99.9,-99.9,0,0,100,30.39,30.22,17,9,20,0.00
2013-4-27,44.0,41.5,40.0,-99.9,-99.9,-99.9,0,0,100,30.40,30.27,12,7,14,0.00
2013-4-28,47.0,43.5,41.0,-99.9,-99.9,-99.9,0,0,100,30.32,30.23,8,4,10,0.00
2013-4-29,47.0,44.9,42.0,-99.9,-99.9,-99.9,0,0,100,30.28,30.22,10,5,11,0.00
2013-4-30,48.0,45.2,42.0,-99.9,-99.9,-99.9,0,0,100,30.35,30.24,7,4,9,0.00
2013-5-1,47.0,45.2,44.0,-99.9,-99.9,-99.9,0,0,100,30.45,30.35,10,6,11,0.00
2013-5-2,47.0,44.8,43.0,-99.9,-99.9,-99.9,0,0,100,30.49,30.38,23,14,27,0.00
2013-5-3,48.0,44.4,42.0,-99.9,-99.9,-99.9,0,0,100,30.50,30.35,19,11,23,0.00
2013-5-4,45.0,42.9,41.0,-99.9,-99.9,-99.9,0,0,100,30.38,30.29,15,9,17,0.00
2013-5-5,46.0,44.2,42.0,-99.9,-99.9,-99.9,0,0,100,30.30,30.23,10,6,12,0.00
2013-5-6,45.0,43.7,42.0,-99.9,-99.9,-99.9,0,0,100,30.26,30.16,11,7,13,0.00
2013-5-7,48.0,44.6,43.0,-99.9,-99.9,-99.9,0,0,100,30.16,30.10,11,7,14,0.00
2013-5-8,50.0,47.2,44.0,-99.9,-99.9,-99.9,0,0,100,30.25,30.16,8,5,10,0.00
2013-5-9,49.0,47.9,47.0,-99.9,-99.9,-99.9,0,0,100,30.13,29.90,10,6,13,0.00
2013-5-10,50.0,45.7,45.0,-99.9,-99.9,-99.9,0,0,100,29.95,29.87,9,4,10,0.00
2013-5-11,51.0,48.2,44.0,-99.9,-99.9,-99.9,0,0,100,29.93,29.70,21,16,26,0.00
2013-5-12,51.0,46.4,45.0,-99.9,-99.9,-99.9,0,0,100,29.70,29.52,19,11,24,0.00
2013-5-13,48.0,45.9,45.0,-99.9,-99.9,-99.9,0,0,100,29.95,29.63,22,16,27,0.00
2013-5-14,48.0,46.1,44.0,-99.9,-99.9,-99.9,0,0,100,29.95,29.87,14,8,17,0.00
2013-5-15,48.0,46.4,45.0,-99.9,-99.9,-99.9,0,0,100,29.97,29.69,22,12,25,0.00
2013-5-16,52.0,45.4,46.0,-99.9,-99.9,-99.9,0,0,100,29.70,29.53,25,12,31,0.00
2013-5-17,51.0,47.7,48.0,-99.9,-99.9,-99.9,0,0,100,30.14,29.72,20,9,23,0.00
2013-5-18,48.0,46.3,45.0,-99.9,-99.9,-99.9,0,0,100,30.33,30.15,14,9,17,0.00
2013-5-19,48.0,47.2,46.0,-99.9,-99.9,-99.9,0,0,100,30.37,30.24,11,8,12,0.00
2013-5-20,50.0,48.5,46.0,-99.9,-99.9,-99.9,0,0,100,30.24,29.91,28,14,36,0.00
2013-5-21,47.0,46.1,45.0,-99.9,-99.9,-99.9,0,0,100,30.03,29.97,14,8,23,0.00
2013-5-22,47.0,46.3,45.0,-99.9,-99.9,-99.9,0,0,100,30.02,29.91,20,12,24,0.00
2013-5-23,52.0,48.7,45.0,-99.9,-99.9,-99.9,0,0,100,29.93,29.81,24,12,28,0.00
2013-5-24,54.0,50.7,47.0,-99.9,-99.9,-99.9,0,0,100,29.82,29.66,29,17,34,0.00
2013-5-25,49.0,46.9,45.0,-99.9,-99.9,-99.9,0,0,100,29.75,29.66,29,17,36,0.00
2013-5-26,49.0,46.6,45.0,-99.9,-99.9,-99.9,0,0,100,29.85,29.59,19,12,25,0.00
2013-5-27,50.0,47.2,46.0,-99.9,-99.9,-99.9,0,0,100,30.11,29.86,16,10,19,0.00
2013-5-28,52.0,48.0,46.0,-99.9,-99.9,-99.9,0,0,100,30.20,30.11,11,6,13,0.00
2013-5-29,49.0,47.7,46.0,-99.9,-99.9,-99.9,0,0,100,30.20,29.98,15,10,17,0.00
2013-5-30,51.0,48.8,47.0,-99.9,-99.9,-99.9,0,0,100,29.98,29.92,11,6,12,0.00
2013-5-31,54.0,51.9,49.0,-99.9,-99.9,-99.9,0,0,100,30.00,29.84,13,7,15,0.00
2013-6-1,56.0,52.7,51.0,-99.9,-99.9,-99.9,0,0,100,29.88,29.80,13,7,24,0.00
2013-6-2,55.0,52.7,51.0,-99.9,-99.9,-99.9,0,0,100,29.80,29.70,22,13,29,0.00
2013-6-3,54.0,51.9,51.0,-99.9,-99.9,-99.9,0,0,100,29.78,29.69,21,12,24,0.00
2013-6-4,56.0,53.7,51.0,-99.9,-99.9,-99.9,0,0,100,29.95,29.71,17,9,19,0.00
2013-6-5,54.0,52.5,51.0,-99.9,-99.9,-99.9,0,0,100,30.11,29.96,16,11,20,0.00
2013-6-6,55.0,52.4,51.0,-99.9,-99.9,-99.9,0,0,100,30.18,30.11,7,4,9,0.00
2013-6-7,51.0,50.2,49.0,-99.9,-99.9,-99.9,0,0,100,30.08,29.96,13,10,15,0.00
2013-6-8,55.0,51.1,49.0,-99.9,-99.9,-99.9,0,0,100,29.94,29.57,26,14,30,0.00
2013-6-9,53.0,50.9,49.0,-99.9,-99.9,-99.9,0,0,100,30.07,29.90,8,5,9,0.00
2013-6-10,56.0,51.8,49.0,-99.9,-99.9,-99.9,0,0,100,30.18,30.05,10,5,11,0.00
2013-6-11,51.0,50.1,49.0,-99.9,-99.9,-99.9,0,0,100,30.03,29.49,26,15,31,0.00
2013-6-12,53.0,50.6,49.0,-99.9,-99.9,-99.9,0,0,100,29.62,29.41,17,11,20,0.00
2013-6-13,53.0,51.4,49.0,-99.9,-99.9,-99.9,0,0,100,29.75,29.62,16,8,19,0.00
2013-6-14,52.0,49.8,49.0,-99.9,-99.9,-99.9,0,0,100,29.70,29.64,8,4,9,0.00
2013-6-15,57.0,52.6,49.0,-99.9,-99.9,-99.9,0,0,100,29.83,29.67,15,9,17,0.00
2013-6-16,56.0,51.8,50.0,-99.9,-99.9,-99.9,0,0,100,29.86,29.71,14,9,16,0.00
2013-6-17,55.0,53.2,50.0,-99.9,-99.9,-99.9,0,0,100,29.80,29.67,14,9,16,0.00
2013-6-18,57.0,54.0,52.0,-99.9,-99.9,-99.9,0,0,100,29.92,29.79,10,6,12,0.00
2013-6-19,63.0,55.8,52.0,-99.9,-99.9,-99.9,0,0,100,30.06,29.87,12,6,15,0.00
2013-6-20,60.0,55.3,53.0,-99.9,-99.9,-99.9,0,0,100,30.21,30.08,9,4,10,0.00
2013-6-22,57.0,55.9,55.0,-99.9,-99.9,-99.9,0,0,100,30.15,30.08,10,7,11,0.00
2013-6-23,56.0,54.6,54.0,-99.9,-99.9,-99.9,0,0,100,30.11,29.97,11,8,13,0.00
2013-6-24,57.0,56.4,54.0,-99.9,-99.9,-99.9,0,0,100,29.92,29.80,10,8,11,0.00
2013-6-25,61.0,56.8,55.0,-99.9,-99.9,-99.9,0,0,100,29.83,29.70,16,8,19,0.00
2013-6-26,57.0,54.0,51.0,-99.9,-99.9,-99.9,0,0,100,29.87,29.67,17,10,20,0.00
2013-6-27,51.0,49.4,48.0,-99.9,-99.9,-99.9,0,0,100,29.89,29.85,16,10,18,0.00
2013-6-28,56.0,52.5,49.0,-99.9,-99.9,-99.9,0,0,100,29.86,29.60,20,16,23,0.00
2013-6-29,55.0,53.9,53.0,-99.9,-99.9,-99.9,0,0,100,29.71,29.57,16,12,19,0.00
2013-6-30,55.0,53.6,53.0,-99.9,-99.9,-99.9,0,0,100,29.95,29.71,18,10,21,0.00
2013-7-1,55.0,53.4,52.0,-99.9,-99.9,-99.9,0,0,100,30.09,29.94,9,5,10,0.00
2013-7-2,56.0,52.4,50.0,-99.9,-99.9,-99.9,0,0,100,30.20,30.09,20,10,23,0.00
2013-7-3,53.0,51.5,51.0,-99.9,-99.9,-99.9,0,0,100,30.18,30.10,9,6,11,0.00
2013-7-4,59.0,55.3,52.0,-99.9,-99.9,-99.9,0,0,100,30.10,30.03,8,6,9,0.00
2013-7-5,62.0,57.7,56.0,-99.9,-99.9,-99.9,0,0,100,30.05,29.97,11,8,14,0.00
2013-7-6,61.0,59.2,58.0,-99.9,-99.9,-99.9,0,0,100,29.98,29.88,12,6,13,0.00
2013-7-7,63.0,59.9,57.0,-99.9,-99.9,-99.9,0,0,100,29.91,29.86,11,8,14,0.00
2013-7-8,61.0,58.2,55.0,-99.9,-99.9,-99.9,0,0,100,30.05,29.88,12,8,14,0.00
2013-7-9,56.0,53.5,52.0,-99.9,-99.9,-99.9,0,0,100,30.11,30.05,11,7,13,0.00
2013-7-10,57.0,52.2,51.0,-99.9,-99.9,-99.9,0,0,100,30.07,29.81,12,7,13,0.00
2013-7-11,58.0,55.9,54.0,-99.9,-99.9,-99.9,0,0,100,29.78,29.74,15,10,17,0.00
2013-7-12,63.0,58.2,55.0,-99.9,-99.9,-99.9,0,0,100,30.16,29.95,12,7,13,0.00
2013-7-13,64.0,59.1,55.0,-99.9,-99.9,-99.9,0,0,100,30.31,30.19,9,4,11,0.00
2013-7-14,60.0,56.4,54.0,-99.9,-99.9,-99.9,0,0,100,30.27,30.16,8,6,9,0.00
2013-7-15,65.0,59.9,57.0,-99.9,-99.9,-99.9,0,0,100,30.16,30.02,15,6,16,0.00
2013-7-16,69.0,62.5,59.0,-99.9,-99.9,-99.9,0,0,100,30.15,30.02,8,5,10,0.00
2013-7-17,60.0,58.4,57.0,-99.9,-99.9,-99.9,0,0,100,30.17,29.92,15,9,17,0.00
2013-7-18,65.0,59.9,58.0,-99.9,-99.9,-99.9,0,0,100,29.98,29.88,11,8,14,0.00
2013-7-19,62.0,60.3,58.0,-99.9,-99.9,-99.9,0,0,100,29.98,29.62,19,11,23,0.00
2013-7-20,65.0,61.2,58.0,-99.9,-99.9,-99.9,0,0,100,29.69,29.58,20,12,23,0.00
2013-7-21,63.0,59.7,58.0,-99.9,-99.9,-99.9,0,0,100,30.00,29.72,9,5,10,0.00
2013-7-22,62.0,57.8,55.0,-99.9,-99.9,-99.9,0,0,100,30.04,29.94,9,4,10,0.00
2013-7-23,61.0,57.5,56.0,-99.9,-99.9,-99.9,0,0,100,29.95,29.51,12,7,15,0.00
2013-7-24,61.0,56.4,54.0,-99.9,-99.9,-99.9,0,0,100,29.88,29.52,9,5,12,0.00
2013-7-25,59.0,55.5,54.0,-99.9,-99.9,-99.9,0,0,100,30.10,29.91,17,10,19,0.00
2013-7-26,62.0,56.9,54.0,-99.9,-99.9,-99.9,0,0,100,30.05,29.80,17,9,19,0.00
2013-7-27,58.0,56.4,53.0,-99.9,-99.9,-99.9,0,0,100,30.04,29.78,17,9,21,0.00
2013-7-28,58.0,54.6,53.0,-99.9,-99.9,-99.9,0,0,100,30.06,29.99,11,7,13,0.00
2013-7-29,60.0,55.8,53.0,-99.9,-99.9,-99.9,0,0,100,30.06,29.96,11,5,12,0.00
2013-7-30,59.0,56.5,53.0,-99.9,-99.9,-99.9,0,0,100,30.06,29.97,13,7,15,0.00
2013-7-31,59.0,56.1,55.0,-99.9,-99.9,-99.9,0,0,100,30.07,30.01,10,6,11,0.00
2013-8-1,59.0,56.4,54.0,-99.9,-99.9,-99.9,0,0,100,30.04,29.92,8,5,9,0.00
2013-8-2,59.0,57.9,55.0,-99.9,-99.9,-99.9,0,0,100,29.93,29.75,10,6,14,0.00
2013-8-3,59.0,56.6,54.0,-99.9,-99.9,-99.9,0,0,100,29.81,29.71,12,6,19,0.00
2013-8-4,58.0,56.7,56.0,-99.9,-99.9,-99.9,0,0,100,29.76,29.71,8,5,10,0.00
2013-8-5,61.0,59.0,58.0,-99.9,-99.9,-99.9,0,0,100,29.96,29.79,15,10,17,0.00
2013-8-6,59.0,58.1,56.0,-99.9,-99.9,-99.9,0,0,100,30.13,29.97,11,8,13,0.00
2013-8-7,61.0,58.3,56.0,-99.9,-99.9,-99.9,0,0,100,30.20,30.12,8,5,9,0.00
2013-8-8,59.0,58.6,58.0,-99.9,-99.9,-99.9,0,0,100,30.14,30.03,13,9,14,0.00
2013-8-9,62.0,59.6,58.0,-99.9,-99.9,-99.9,0,0,100,30.02,29.66,26,14,33,0.00
2013-8-10,65.0,59.3,56.0,-99.9,-99.9,-99.9,0,0,100,29.92,29.67,14,9,16,0.00
2013-8-11,61.0,58.6,56.0,-99.9,-99.9,-99.9,0,0,100,30.00,29.93,15,9,18,0.00
2013-8-12,59.0,58.1,57.0,-99.9,-99.9,-99.9,0,0,100,29.97,29.89,11,7,12,0.00
2013-8-13,61.0,55.8,56.0,-99.9,-99.9,-99.9,0,0,100,29.90,29.70,6,4,8,0.00
2013-8-14,60.0,57.8,56.0,-99.9,-99.9,-99.9,0,0,100,29.78,29.59,21,8,26,0.00
2013-8-15,59.0,53.9,56.0,-99.9,-99.9,-99.9,0,0,100,30.06,29.80,15,11,17,0.00
2013-8-16,60.0,56.4,56.0,-99.9,-99.9,-99.9,0,0,100,30.16,30.05,9,5,10,0.00
2013-8-17,64.0,57.2,55.0,-99.9,-99.9,-99.9,0,0,100,30.24,30.16,5,3,8,0.00
2013-8-18,61.0,58.6,57.0,-99.9,-99.9,-99.9,0,0,100,30.24,30.03,13,7,15,0.00
2013-8-19,61.0,57.0,58.0,-99.9,-99.9,-99.9,0,0,100,30.02,29.84,16,9,18,0.00
2013-8-20,62.0,60.9,59.0,-99.9,-99.9,-99.9,0,0,100,30.03,29.88,9,6,10,0.00
2013-8-21,62.0,59.1,58.0,-99.9,-99.9,-99.9,0,0,100,30.09,29.98,10,6,11,0.00
2013-8-22,61.0,59.2,58.0,-99.9,-99.9,-99.9,0,0,100,29.96,29.74,14,7,16,0.00
2013-8-23,63.0,60.5,59.0,-99.9,-99.9,-99.9,0,0,100,30.06,29.71,16,10,19,0.00
2013-8-24,60.0,56.1,56.0,-99.9,-99.9,-99.9,0,0,100,30.26,30.08,11,7,13,0.00
2013-8-25,62.0,58.2,55.0,-99.9,-99.9,-99.9,0,0,100,30.32,30.15,8,4,10,0.00
2013-8-26,58.0,57.5,57.0,-99.9,-99.9,-99.9,0,0,100,30.14,29.85,14,9,17,0.00
2013-8-27,68.0,58.8,57.0,-99.9,-99.9,-99.9,0,0,100,29.86,29.81,6,3,7,0.00
2013-8-28,59.0,57.5,56.0,-99.9,-99.9,-99.9,0,0,100,29.96,29.88,5,4,6,0.00
2013-8-29,60.0,57.6,56.0,-99.9,-99.9,-99.9,0,0,100,30.07,29.96,20,13,24,0.00
2013-8-30,58.0,55.6,53.0,-99.9,-99.9,-99.9,0,0,100,29.97,29.77,15,8,17,0.00
2013-8-31,61.0,57.2,57.0,-99.9,-99.9,-99.9,0,0,100,29.82,29.75,9,5,11,0.00
2013-9-1,62.0,58.8,56.0,-99.9,-99.9,-99.9,0,0,100,29.91,29.75,14,6,16,0.00
2013-9-2,61.0,58.4,57.0,-99.9,-99.9,-99.9,0,0,100,29.93,29.73,23,14,27,0.00
2013-9-3,61.0,59.1,58.0,-99.9,-99.9,-99.9,0,0,100,29.74,29.69,12,7,13,0.00
2013-9-4,61.0,58.9,57.0,-99.9,-99.9,-99.9,0,0,100,29.84,29.69,15,10,17,0.00
2013-9-5,59.0,56.6,55.0,-99.9,-99.9,-99.9,0,0,100,30.06,29.83,14,6,17,0.00
2013-9-6,57.0,55.7,54.0,-99.9,-99.9,-99.9,0,0,100,30.17,30.02,15,10,17,0.00
2013-9-7,59.0,56.0,57.0,-99.9,-99.9,-99.9,0,0,100,30.02,29.77,16,12,19,0.00
2013-9-8,59.0,57.4,55.0,-99.9,-99.9,-99.9,0,0,100,29.98,29.65,21,14,25,0.00
2013-9-9,57.0,54.9,52.0,-99.9,-99.9,-99.9,0,0,100,30.16,29.99,22,16,26,0.00
2013-9-10,58.0,57.2,57.0,-99.9,-99.9,-99.9,0,0,100,30.11,30.03,18,13,21,0.00
2013-9-11,60.0,57.8,56.0,-99.9,-99.9,-99.9,0,0,100,30.03,29.88,16,9,18,0.00
2013-9-12,63.0,58.7,58.0,-99.9,-99.9,-99.9,0,0,100,29.97,29.69,29,12,34,0.00
2013-9-13,59.0,57.6,57.0,-99.9,-99.9,-99.9,0,0,100,29.67,29.54,17,8,20,0.00
2013-9-14,59.0,56.0,56.0,-99.9,-99.9,-99.9,0,0,100,29.95,29.62,20,9,24,0.00
2013-9-15,57.0,56.2,55.0,-99.9,-99.9,-99.9,0,0,100,30.07,29.96,16,9,20,0.00
2013-9-16,58.0,55.5,49.0,-99.9,-99.9,-99.9,0,0,100,30.18,29.93,26,13,33,0.00
2013-9-17,57.0,50.1,47.0,-99.9,-99.9,-99.9,0,0,100,30.32,30.18,26,18,29,0.00
2013-9-18,56.0,54.1,54.0,-99.9,-99.9,-99.9,0,0,100,30.24,30.05,12,6,14,0.00
2013-9-19,58.0,55.6,54.0,-99.9,-99.9,-99.9,0,0,100,30.07,29.99,11,6,13,0.00
2013-9-20,64.0,57.2,55.0,-99.9,-99.9,-99.9,0,0,100,30.06,29.99,8,4,9,0.00
2013-9-21,58.0,54.3,54.0,-99.9,-99.9,-99.9,0,0,100,30.02,29.83,16,11,20,0.00
2013-9-22,60.0,58.3,56.0,-99.9,-99.9,-99.9,0,0,100,29.79,29.60,23,17,28,0.00
2013-9-23,56.0,52.6,49.0,-99.9,-99.9,-99.9,0,0,100,29.85,29.65,24,20,28,0.00
2013-9-24,52.0,51.3,48.0,-99.9,-99.9,-99.9,0,0,100,29.84,29.75,22,19,27,0.00
2013-9-25,55.0,52.2,50.0,-99.9,-99.9,-99.9,0,0,100,29.89,29.78,20,15,22,0.00
2013-9-26,56.0,53.6,52.0,-99.9,-99.9,-99.9,0,0,100,30.05,29.90,19,15,24,0.00
2013-9-27,60.0,55.8,54.0,-99.9,-99.9,-99.9,0,0,100,30.19,30.06,15,7,17,0.00
2013-9-28,56.0,54.1,53.0,-99.9,-99.9,-99.9,0,0,100,30.31,30.21,7,5,9,0.00
2013-9-29,56.0,51.7,51.0,-99.9,-99.9,-99.9,0,0,100,30.25,30.11,8,5,9,0.00
2013-9-30,54.0,53.2,51.0,-99.9,-99.9,-99.9,0,0,100,30.11,29.94,8,5,10,0.00
2013-10-1,55.0,54.8,54.0,-99.9,-99.9,-99.9,0,0,100,29.82,29.81,7,6,9,0.00
2013-10-2,59.0,56.2,55.0,-99.9,-99.9,-99.9,0,0,100,29.81,29.70,15,9,18,0.00
2013-10-3,60.0,57.4,56.0,-99.9,-99.9,-99.9,0,0,100,30.00,29.82,12,8,16,0.00
2013-10-4,64.0,56.8,55.0,-99.9,-99.9,-99.9,0,0,100,30.05,29.99,10,6,11,0.00
2013-10-5,56.0,53.7,53.0,-99.9,-99.9,-99.9,0,0,100,30.11,30.05,13,8,14,0.00
2013-10-6,54.0,51.6,50.0,-99.9,-99.9,-99.9,0,0,100,30.26,30.11,22,14,27,0.00
2013-10-7,59.0,56.6,49.0,-99.9,-99.9,-99.9,0,0,100,30.22,29.82,26,20,33,0.00
2013-10-8,58.0,55.9,54.0,-99.9,-99.9,-99.9,0,0,100,30.34,29.79,26,15,33,0.00
2013-10-9,53.0,52.2,51.0,-99.9,-99.9,-99.9,0,0,100,30.46,30.35,14,8,17,0.00
2013-10-10,54.0,53.2,52.0,-99.9,-99.9,-99.9,0,0,100,30.34,30.19,11,8,13,0.00
2013-10-11,56.0,54.0,52.0,-99.9,-99.9,-99.9,0,0,100,30.17,30.09,18,4,22,0.00
2013-10-12,55.0,52.1,51.0,-99.9,-99.9,-99.9,0,0,100,30.40,30.17,24,19,30,0.00
2013-10-13,53.0,51.8,51.0,-99.9,-99.9,-99.9,0,0,100,30.46,30.37,13,8,15,0.00
2013-10-14,54.0,52.8,52.0,-99.9,-99.9,-99.9,0,0,100,30.37,30.24,14,12,17,0.00
2013-10-15,59.0,54.7,53.0,-99.9,-99.9,-99.9,0,0,100,30.25,30.20,10,5,12,0.00
2013-10-16,54.0,53.4,53.0,-99.9,-99.9,-99.9,0,0,100,30.20,29.86,17,9,20,0.00
2013-10-17,54.0,52.3,50.0,-99.9,-99.9,-99.9,0,0,100,29.86,29.74,15,8,19,0.00
2013-10-18,58.0,54.8,51.0,-99.9,-99.9,-99.9,0,0,100,29.76,29.54,22,10,27,0.00
2013-10-19,55.0,52.4,53.0,-99.9,-99.9,-99.9,0,0,100,29.89,29.77,17,11,21,0.00
2013-10-20,57.0,55.1,54.0,-99.9,-99.9,-99.9,0,0,100,29.88,29.65,19,14,24,0.00
2013-10-21,54.0,52.3,51.0,-99.9,-99.9,-99.9,0,0,100,30.03,29.88,21,18,27,0.00
2013-10-22,55.0,54.3,53.0,-99.9,-99.9,-99.9,0,0,100,29.99,29.66,19,12,23,0.00
2013-10-23,51.0,49.7,48.0,-99.9,-99.9,-99.9,0,0,100,29.73,29.55,16,6,20,0.00
2013-10-24,50.0,48.0,46.0,-99.9,-99.9,-99.9,0,0,100,29.74,29.53,28,20,33,0.00
2013-10-25,50.0,46.2,45.0,-99.9,-99.9,-99.9,0,0,100,30.03,29.74,24,19,30,0.00
2013-10-26,52.0,47.6,43.0,-99.9,-99.9,-99.9,0,0,100,30.08,29.85,28,20,34,0.00
2013-10-27,52.0,48.1,45.0,-99.9,-99.9,-99.9,0,0,100,29.93,29.75,26,18,31,0.00
2013-10-28,51.0,46.5,41.0,-99.9,-99.9,-99.9,0,0,100,30.28,29.93,28,23,37,0.00
2013-10-29,44.0,41.4,39.0,-99.9,-99.9,-99.9,0,0,100,30.40,30.27,23,11,27,0.00
2013-10-30,47.0,45.2,44.0,-99.9,-99.9,-99.9,0,0,100,30.32,30.12,19,12,23,0.00
2013-10-31,55.0,50.8,44.0,-99.9,-99.9,-99.9,0,0,100,30.23,29.80,26,17,31,0.00
2013-11-1,59.0,56.5,55.0,-99.9,-99.9,-99.9,0,0,100,29.80,29.36,36,28,47,0.00
2013-11-2,56.0,52.4,52.0,-99.9,-99.9,-99.9,0,0,100,29.68,29.47,26,13,32,0.00
2013-11-3,51.0,41.0,38.0,-99.9,-99.9,-99.9,0,0,100,30.31,29.69,27,22,35,0.00
2013-11-4,41.0,37.3,35.0,-99.9,-99.9,-99.9,0,0,100,30.66,30.31,27,19,35,0.00
2013-11-5,47.0,44.2,40.0,-99.9,-99.9,-99.9,0,0,100,30.69,30.49,19,13,24,0.00
2013-11-6,53.0,50.0,47.0,-99.9,-99.9,-99.9,0,0,100,30.48,30.01,24,19,29,0.00
2013-11-7,55.0,52.1,45.0,-99.9,-99.9,-99.9,0,0,100,30.01,29.59,29,22,35,0.00
2013-11-8,45.0,42.7,41.0,-99.9,-99.9,-99.9,0,0,100,29.87,29.67,28,22,35,0.00
2013-11-9,42.0,40.2,40.0,-99.9,-99.9,-99.9,0,0,100,30.08,29.87,28,20,37,0.00
2013-11-10,49.0,45.5,41.0,-99.9,-99.9,-99.9,0,0,100,30.05,29.66,24,13,30,0.00
2013-11-11,49.0,44.4,42.0,-99.9,-99.9,-99.9,0,0,100,29.93,29.67,28,20,34,0.00
2013-11-12,49.0,40.8,33.0,-99.9,-99.9,-99.9,0,0,100,29.96,29.79,26,22,34,0.00
2013-11-13,35.0,32.6,29.0,-99.9,-99.9,-99.9,0,0,100,30.13,30.04,24,19,31,0.00
2013-11-14,48.0,42.1,35.0,-99.9,-99.9,-99.9,0,0,100,30.06,29.94,24,18,30,0.00
2013-11-15,50.0,48.9,46.0,-99.9,-99.9,-99.9,0,0,100,30.14,30.04,17,12,21,0.00
2013-11-16,49.0,47.5,47.0,-99.9,-99.9,-99.9,0,0,100,30.30,30.15,14,8,16,0.00
2013-11-17,51.0,48.8,46.0,-99.9,-99.9,-99.9,0,0,100,30.34,29.99,22,12,28,0.00
2013-11-18,54.0,52.7,51.0,-99.9,-99.9,-99.9,0,0,100,29.99,29.47,31,22,39,0.00
2013-11-19,51.0,41.2,37.0,-99.9,-99.9,-99.9,0,0,100,30.07,29.51,31,25,40,0.00
2013-11-20,39.0,36.2,33.0,-99.9,-99.9,-99.9,0,0,100,30.56,30.07,33,26,45,0.00
2013-11-21,46.0,40.7,35.0,-99.9,-99.9,-99.9,0,0,100,30.57,30.33,19,15,23,0.00
2013-11-22,47.0,42.8,40.0,-99.9,-99.9,-99.9,0,0,100,30.31,29.78,18,9,22,0.00
2013-11-23,46.0,39.5,35.0,-99.9,-99.9,-99.9,0,0,100,29.73,29.59,34,25,41,0.00
2013-11-24,35.0,27.8,26.0,-99.9,-99.9,-99.9,0,0,100,29.85,29.54,39,31,53,0.00
2013-11-25,37.0,27.4,24.0,-99.9,-99.9,-99.9,0,0,100,30.27,29.85,35,26,47,0.00
2013-11-26,44.0,40.2,36.0,-99.9,-99.9,-99.9,0,0,100,30.29,30.18,29,20,35,0.00
2013-11-27,54.0,51.3,45.0,-99.9,-99.9,-99.9,0,0,100,30.17,29.11,40,28,49,0.00
2013-11-28,49.0,35.6,27.0,-99.9,-99.9,-99.9,0,0,100,30.32,29.14,30,26,38,0.00
2013-11-29,27.0,25.5,24.0,-99.9,-99.9,-99.9,0,0,100,30.68,30.32,22,18,31,0.00
2013-11-30,38.0,28.6,25.0,-99.9,-99.9,-99.9,0,0,100,30.76,30.45,21,13,28,0.00
2013-12-1,47.0,42.8,37.0,-99.9,-99.9,-99.9,0,0,100,30.45,30.07,24,19,30,0.00
2013-12-2,46.0,45.0,44.0,-99.9,-99.9,-99.9,0,0,100,30.07,29.89,26,18,30,0.00
2013-12-3,46.0,42.1,40.0,-99.9,-99.9,-99.9,0,0,100,29.88,29.74,25,18,31,0.00
2013-12-4,42.0,39.2,37.0,-99.9,-99.9,-99.9,0,0,100,30.16,29.74,29,22,34,0.00
2013-12-5,49.0,43.9,37.0,-99.9,-99.9,-99.9,0,0,100,30.25,29.90,21,15,26,0.00
2013-12-6,50.0,45.8,41.0,-99.9,-99.9,-99.9,0,0,100,30.06,29.83,20,13,24,0.00
2013-12-7,40.0,34.4,29.0,-99.9,-99.9,-99.9,0,0,100,30.34,30.02,27,20,36,0.00
2013-12-8,29.0,27.5,26.0,-99.9,-99.9,-99.9,0,0,100,30.56,30.33,25,19,35,0.00
2013-12-9,43.0,32.6,26.0,-99.9,-99.9,-99.9,0,0,100,30.53,29.77,26,19,32,0.00
2013-12-10,43.0,35.4,28.0,-99.9,-99.9,-99.9,0,0,100,29.83,29.67,26,17,33,0.00
2013-12-11,33.0,30.1,27.0,-99.9,-99.9,-99.9,0,0,100,30.07,29.81,29,24,39,0.00
2013-12-12,27.0,20.2,16.0,-99.9,-99.9,-99.9,0,0,100,30.18,29.97,26,20,39,0.00
2013-12-13,27.0,23.3,12.0,-99.9,-99.9,-99.9,0,0,100,30.31,29.84,37,26,48,0.00
2013-12-14,22.0,11.1,8.0,-99.9,-99.9,-99.9,0,0,100,30.59,30.31,24,16,32,0.00
2013-12-15,37.0,26.2,22.0,-99.9,-99.9,-99.9,0,0,100,30.42,29.18,38,28,47,0.00
2013-12-16,29.0,24.2,14.0,-99.9,-99.9,-99.9,0,0,100,30.13,29.60,32,24,43,0.00
2013-12-17,32.0,18.1,11.0,-99.9,-99.9,-99.9,0,0,100,30.27,30.02,26,14,32,0.00
2013-12-18,36.0,30.3,27.0,-99.9,-99.9,-99.9,0,0,100,29.98,29.72,31,24,38,0.00
2013-12-19,41.0,35.2,31.0,-99.9,-99.9,-99.9,0,0,100,30.03,29.88,22,18,28,0.00
2013-12-20,45.0,42.6,39.0,-99.9,-99.9,-99.9,0,0,100,30.13,29.90,21,11,25,0.00
2013-12-21,46.0,39.7,36.0,-99.9,-99.9,-99.9,0,0,100,29.93,29.80,17,11,20,0.00
2013-12-22,41.0,36.8,34.0,-99.9,-99.9,-99.9,0,0,100,30.03,29.83,29,23,36,0.00
2013-12-23,43.0,38.5,34.0,-99.9,-99.9,-99.9,0,0,100,30.06,29.93,23,17,27,0.00
2013-12-24,38.0,28.4,20.0,-99.9,-99.9,-99.9,0,0,100,30.09,30.00,27,20,34,0.00
2013-12-25,21.0,18.6,16.0,-99.9,-99.9,-99.9,0,0,100,30.53,30.09,29,22,37,0.00
2013-12-26,41.0,33.7,22.0,-99.9,-99.9,-99.9,0,0,100,30.50,29.99,22,14,26,0.00
2013-12-27,34.0,30.9,26.0,-99.9,-99.9,-99.9,0,0,100,30.15,30.02,28,20,34,0.00
2013-12-28,42.0,37.4,30.0,-99.9,-99.9,-99.9,0,0,100,30.14,29.90,27,19,34,0.00
2013-12-29,45.0,42.5,38.0,-99.9,-99.9,-99.9,0,0,100,30.00,29.42,26,11,31,0.00
2013-12-30,38.0,28.2,13.0,-99.9,-99.9,-99.9,0,0,100,30.12,29.35,30,23,39,0.00
2013-12-31,16.0,12.8,10.0,-99.9,-99.9,-99.9,0,0,100,30.14,30.02,23,14,29,0.00
2014-1-1,24.0,21.2,14.0,-99.9,-99.9,-99.9,0,0,100,30.37,30.06,29,22,35,0.00
2014-1-2,14.0,9.2,5.0,-99.9,-99.9,-99.9,0,0,100,30.43,29.92,30,22,37,0.00